{"data":{"norad_id":49189,"intl_designator":"2021-083D","name":"ONEWEB-0307","alt_names":[],"object_type":"PAYLOAD","status":"ACTIVE","operator":null,"country":"UK","launch_date":"2021-09-14","launch_site_code":"TYMSC","launch_vehicle":null,"mission":null,"orbit_class":"UNKNOWN","rcs_meters":null,"size_class":null,"mass_kg":null,"dimensions":null,"purposes":["comms"],"wikipedia_slug":null,"has_3d_model":false,"image_url":null,"decayed_at":null,"tle_current":{"epoch":"2026-09-19T20:21:39.421152Z","epoch_age_seconds":78191,"freshness":"FRESH","line1":"1 49189U 21083D   26262.84837293 -.00000090  00000+0 -28174-3 0  9992","line2":"2 49189  87.8915 301.3988 0001920  98.8663 261.2683 13.13468766243355","mean_motion":13.13468766,"eccentricity":0.000192,"inclination_deg":87.8915,"raan_deg":301.3988,"arg_perigee_deg":98.8663,"mean_anomaly_deg":261.2683,"bstar":-0.00028174,"rev_number":24335,"period_min":109.63336451352,"perigee_km":1208.3132742674,"apogee_km":1211.2270306139,"semimajor_km":7587.9071524407,"source":"CELESTRAK","updated_at":"2026-09-20T09:00:44.660756Z"}}}